Weather History for Erie, CO

Change the Weather History Date:

Saturday, February 16, 2013

  Actual Average (KBJC) Record (KBJC)
Temperature  
Mean Temperature 36 °F -  
Max Temperature 57 °F 45 °F 66 °F (2011)
Min Temperature 16 °F 25 °F -8 °F (1993)
Degree Days  
Heating Degree Days 28    
Moisture  
Dew Point 10 °F    
Average Humidity 41    
Maximum Humidity 90    
Minimum Humidity 13    
Precipitation  
Precipitation 0.00 in - - ()
Sea Level Pressure  
Sea Level Pressure 30.07 in    
Wind  
Wind Speed 4 mph (WSW)    
Max Wind Speed 18 mph    
Max Gust Speed 22 mph    
Visibility 10 miles    
Events      
Averages and records for this station are not official NWS values.
T = Trace of Precipitation, MM = Missing Value Source: NWS Daily Summary

Daily Weather History Graph

Daily Weather History Graph

Search for Another Location

Airport:

Trip Planner

Search our weather history database for the weather conditions in past years. The results will help you decide how hot, cold, wet, or windy it might be!

Date:

Astronomy

Feb. 16, 2013 Rise Set
Actual Time 6:51 AM MST 5:37 PM MST
Civil Twilight 6:23 AM MST 6:05 PM MST
Nautical Twilight 5:52 AM MST 6:37 PM MST
Astronomical Twilight 5:20 AM MST 7:08 PM MST
Moon 10:06 AM MST (2/16) No Moon Set
Length of Visible Light 11h 41m
Length of Day
10h 46m
Waxing Crescent, 40% of the Moon is Illuminated
Feb 16
Waxing Crescent
Feb 17
First Quarter
Feb 25
Full
Mar 4
Last Quarter
Mar 11
New

Hourly Weather History & Observations

Time (MST) Temp. Windchill Dew Point Humidity Pressure Visibility Wind Dir Wind Speed Gust Speed Precip Events Conditions
12:16 AM 16.0 °F - 13.1 °F 88% 30.19 in 10.0 mi Calm Calm - N/A   Clear
12:36 AM 16.9 °F - 13.8 °F 88% 30.18 in 10.0 mi Calm Calm - N/A   Clear
12:56 AM 16.9 °F - 14.2 °F 89% 30.18 in 10.0 mi Calm Calm - N/A   Clear
1:16 AM 16.0 °F - 13.5 °F 90% 30.18 in 10.0 mi Calm Calm - N/A   Clear
1:36 AM 17.1 °F 8.7 °F 14.0 °F 88% 30.17 in 10.0 mi SSW 5.8 mph - N/A   Clear
1:56 AM 18.5 °F - 14.9 °F 86% 30.16 in 10.0 mi Calm Calm - N/A   Clear
2:16 AM 19.0 °F 11.1 °F 15.4 °F 86% 30.16 in 10.0 mi SSW 5.8 mph - N/A   Clear
2:36 AM 18.9 °F - 15.4 °F 87% 30.15 in 10.0 mi Calm Calm - N/A   Clear
2:56 AM 20.1 °F 15.2 °F 15.6 °F 83% 30.14 in 10.0 mi SSW 3.5 mph - N/A   Clear
3:16 AM 19.6 °F - 14.5 °F 81% 30.14 in 10.0 mi Calm Calm - N/A   Clear
3:36 AM 20.1 °F - 14.7 °F 80% 30.14 in 10.0 mi Calm Calm - N/A   Clear
3:56 AM 18.7 °F 5.1 °F 14.2 °F 83% 30.13 in 10.0 mi West 13.8 mph 21.9 mph N/A   Clear
4:16 AM 36.5 °F 30.3 °F 13.5 °F 39% 30.13 in 10.0 mi NW 8.1 mph - N/A   Clear
4:36 AM 36.0 °F 30.3 °F 12.4 °F 38% 30.13 in 10.0 mi NW 6.9 mph - N/A   Clear
4:56 AM 36.5 °F 31.0 °F 11.3 °F 35% 30.12 in 10.0 mi WNW 6.9 mph - N/A   Clear
5:16 AM 36.3 °F 28.9 °F 10.8 °F 35% 30.12 in 10.0 mi West 10.4 mph - N/A   Clear
5:36 AM 39.7 °F 35.6 °F 10.4 °F 30% 30.11 in 10.0 mi WSW 5.8 mph 20.7 mph N/A   Clear
5:56 AM 36.1 °F 31.4 °F 10.2 °F 34% 30.11 in 10.0 mi South 5.8 mph - N/A   Clear
6:16 AM 35.1 °F 31.0 °F 10.6 °F 36% 30.11 in 10.0 mi South 4.6 mph - N/A   Clear
6:36 AM 33.6 °F 29.4 °F 10.9 °F 39% 30.11 in 10.0 mi South 4.6 mph - N/A   Clear
6:56 AM 34.7 °F - 10.4 °F 37% 30.11 in 10.0 mi Calm Calm - N/A   Clear
7:16 AM 37.6 °F - 10.2 °F 32% 30.11 in 10.0 mi Calm Calm - N/A   Clear
7:36 AM 39.7 °F 34.9 °F 11.1 °F 31% 30.11 in 10.0 mi West 6.9 mph - N/A   Clear
7:56 AM 42.3 °F 38.6 °F 11.7 °F 29% 30.11 in 10.0 mi WNW 5.8 mph - N/A   Clear
8:16 AM 45.5 °F 43.2 °F 10.0 °F 24% 30.11 in 10.0 mi NW 4.6 mph - N/A   Clear
8:36 AM 46.9 °F - 9.5 °F 22% 30.11 in 10.0 mi WNW 10.4 mph - N/A   Clear
8:56 AM 45.0 °F 40.1 °F 13.3 °F 28% 30.11 in 10.0 mi North 9.2 mph - N/A   Clear
3:56 PM 57.2 °F - 7.0 °F 13% 30.03 in 10.0 mi West 18.4 mph - N/A   Clear
4:16 PM 56.1 °F - 6.3 °F 14% 30.02 in 10.0 mi West 17.3 mph 20.7 mph N/A   Clear
4:36 PM 55.4 °F - 5.9 °F 14% 30.02 in 10.0 mi West 11.5 mph - N/A   Clear
4:56 PM 54.1 °F - 5.9 °F 14% 30.01 in 10.0 mi WSW 6.9 mph - N/A   Clear
5:16 PM 52.2 °F - 7.5 °F 17% 30.02 in 10.0 mi WSW 6.9 mph - N/A   Clear
5:36 PM 49.3 °F - 6.8 °F 18% 30.02 in 10.0 mi WSW 5.8 mph - N/A   Clear
5:56 PM 46.2 °F 42.2 °F 4.5 °F 18% 30.01 in 10.0 mi WNW 8.1 mph - N/A   Clear
6:16 PM 43.0 °F 38.2 °F 6.1 °F 22% 30.01 in 10.0 mi South 8.1 mph - N/A   Clear
6:36 PM 40.5 °F 38.4 °F 7.3 °F 26% 30.01 in 10.0 mi SSW 3.5 mph - N/A   Clear
6:56 PM 39.0 °F 35.7 °F 7.5 °F 27% 30.01 in 10.0 mi South 4.6 mph - N/A   Clear
7:16 PM 37.2 °F - 7.5 °F 29% 30.01 in 10.0 mi Calm Calm - N/A   Clear
7:36 PM 36.9 °F 33.1 °F 7.3 °F 29% 30.00 in 10.0 mi South 4.6 mph - N/A   Clear
7:56 PM 37.2 °F 33.6 °F 7.7 °F 29% 30.00 in 10.0 mi SW 4.6 mph - N/A   Clear
8:16 PM 35.2 °F 31.2 °F 8.2 °F 33% 29.99 in 10.0 mi SSW 4.6 mph - N/A   Clear
8:36 PM 31.8 °F - 9.0 °F 38% 29.99 in 10.0 mi Calm Calm - N/A   Clear
8:56 PM 31.3 °F - 9.5 °F 40% 29.99 in 10.0 mi Calm Calm - N/A   Clear
9:16 PM 35.4 °F 29.7 °F 8.4 °F 33% 29.98 in 10.0 mi WSW 6.9 mph - N/A   Clear
9:36 PM 44.2 °F 40.3 °F 7.5 °F 22% 29.98 in 10.0 mi SW 6.9 mph - N/A   Clear
9:56 PM 41.4 °F 38.4 °F 8.2 °F 26% 29.98 in 10.0 mi SW 4.6 mph - N/A   Clear
10:16 PM 39.0 °F 34.8 °F 7.7 °F 27% 29.97 in 10.0 mi West 5.8 mph - N/A   Clear
10:36 PM 33.1 °F 25.5 °F 6.8 °F 33% 29.97 in 10.0 mi WNW 9.2 mph - N/A   Clear
10:56 PM 37.8 °F 30.2 °F 7.9 °F 29% 29.96 in 10.0 mi WNW 11.5 mph - N/A   Clear
11:16 PM 38.3 °F 30.9 °F 7.3 °F 28% 29.96 in 10.0 mi West 11.5 mph - N/A   Clear
11:36 PM 38.5 °F 32.7 °F 7.7 °F 28% 29.94 in 10.0 mi NW 8.1 mph - N/A   Clear
11:56 PM 44.2 °F - 5.9 °F 21% 29.94 in 10.0 mi Calm Calm - N/A   Clear